Regional Weather Roundup
Issued by NWS Little Rock, AR

Home | Current Version | Previous Version | Text Only | Print | Product List | Glossary On
Versions: 1 2 3 4 5 6 7 8 9 10 11 12 13 14 15 16 17 18 19 20 21 22 23 24 25 26 27 28 29 30 31 32 33 34 35 36 37 38 39 40 41 42 43 44 45 46 47 48 49 50
000
ASUS44 KLZK 300905
RWRLZK

WEATHER ROUNDUP FOR ARKANSAS
NATIONAL WEATHER SERVICE LITTLE ROCK AR
400 AM CDT MON MAR 30 2015

NOTE: "FAIR" INDICATES FEW OR NO CLOUDS BELOW 12,000 FEET WITH NO
SIGNIFICANT WEATHER AND/OR OBSTRUCTIONS TO VISIBILITY.

ARZ001-003-010-029-301000-
NORTHWEST ARKANSAS

CITY           SKY/WX    TMP DP  RH WIND       PRES   REMARKS
FAYETTEVILLE   FAIR      39  39 100 CALM      30.19R
FORT SMITH     CLEAR     47  44  90 CALM      30.16R
HARRISON       CLEAR     47  42  83 NW6       30.16S
BENTONVILLE    CLEAR     46  39  76 N5        30.18S
ROGERS         CLEAR     44  41  89 NE3       30.19R
SILOAM SPGS    CLEAR     46  37  71 N5        30.19S
HIGHFILL       CLEAR     46  40  79 N7        30.17S
$$

ARZ004-005-016-301000-
NORTH CENTRAL ARKANSAS

CITY           SKY/WX    TMP DP  RH WIND       PRES   REMARKS
BATESVILLE     CLEAR     52  43  71 NW5       30.13S
FLIPPIN        CLEAR     50  39  66 N5        30.15S
MTN HOME       CLEAR     46  42  86 NW3       30.14S
$$

ARZ040-041-301000-
WEST CENTRAL ARKANSAS

CITY           SKY/WX    TMP DP  RH WIND       PRES   REMARKS
MENA           PTCLDY    55  45  67 CALM      30.15S
MOUNT IDA      CLEAR     53  46  77 CALM      30.13R
$$

ARZ009-017-025-026-028-301000-
NORTHEAST ARKANSAS

CITY           SKY/WX    TMP DP  RH WIND       PRES   REMARKS
CORNING          N/A     50  43  76 NW8       30.12R
JONESBORO      CLEAR     51  46  83 NW7       30.11R
NEWPORT        CLEAR     51  46  83 NW8       30.14R
BLYTHEVILLE    CLEAR     47  46  97 NW3       30.11R
$$

ARZ022-023-033-042-044-301000-
CENTRAL ARKANSAS

CITY           SKY/WX    TMP DP  RH WIND       PRES   REMARKS
LITTLE ROCK    PTCLDY    60  46  59 CALM      30.14R
N LITTLE ROCK    N/A     56  49  75 NW5       30.14R
JACKSONVILLE   CLEAR     51  45  80 CALM      30.13R
SEARCY         CLEAR     48  45  89 CALM      30.15R
HOT SPRINGS    MOCLDY    59  50  72 CALM      30.15S
RUSSELLVILLE   CLEAR     46  44  93 CALM      30.14R
CLINTON        FAIR      41  41 100 CALM      30.14S FOG
$$

ARZ036-301000-
EAST ARKANSAS

CITY           SKY/WX    TMP DP  RH WIND       PRES   REMARKS
WEST MEMPHIS   CLEAR     54  52  93 N3        30.10R
$$

ARZ050-053-066-070-073-301000-
SOUTHWEST ARKANSAS

CITY           SKY/WX    TMP DP  RH WIND       PRES   REMARKS
ARKADELPHIA    CLOUDY    60  60 100 CALM      30.15R
CAMDEN         LGT RAIN  64  57  77 MISG      30.14R
TEXARKANA      MOCLDY    66  58  75 SW8       30.12S
EL DORADO      MOCLDY    64  58  80 CALM      30.14S
DE QUEEN       CLOUDY    57  53  86 CALM      30.12R
$$

ARZ056-057-069-301000-
SOUTHEAST ARKANSAS

CITY           SKY/WX    TMP DP  RH WIND       PRES   REMARKS
PINE BLUFF     CLOUDY    62  49  62 N7        30.14R
STUTTGART      CLOUDY    57  48  72 NW8       30.13R
MONTICELLO     CLOUDY    64  60  87 W5        30.12R

$$




USA.gov is the U.S. government's official web portal to all federal, state and local government web resources and services.